Torna al catalogo

FREGAT DEB

LostMEO
NORAD 43395·DEBRIS·🇷🇺 Russia

Lanciato Jan 20, 2011 da Baikonur Cosmodrome

Loading…

Prossimi Passaggi (prossime 24 ore)

TLE

ObsoletoSource: Space-Track

Epoca: Feb 15, 2026, 04:48 UTC

1 43395U 11001J   26046.20062002 -.00000236  00000-0  00000-0 0  9999
2 43395  10.0563  43.8552 0101231  55.3124   5.9388  1.02850450 52797

Traccia FREGAT DEB in tempo reale con AllMySat

Download on the App Store